YAOGAN-47

导读

YAOGAN-47(遥感四十七号)是中国研制的遥感卫星,于北京时间2025年12月9日11时41分,在酒泉卫星发射中心由长征四号乙运载火箭成功发射,卫星顺利进入预定轨道,发射任务取得圆满成功,这也是长征系列运载火箭的第614次飞行。该卫星主要服务于国土普查、城市规划、路网设计、农作物估产、环境治理和综合防灾减灾等领域,将为国家经济社会发展提供遥感数据支撑。

基本信息
目录编号:
66988
目录名称:
YAOGAN-47
国际标识:
2025-289A
轨道中心:
EARTH
卫星名称:
YAOGAN-47
卫星全名:
YAOGAN-47
卫星状态:
在轨 (已飞行277 天)
发射日期:
2025-12-09 UTC
国别 :
中国 (CN)
星等 :
--
该卫星已列入 空间交会检测服务 Space Conjunction Data Service (SCDS) ,当前飞行风险评估等级: 无高风险
轨道信息
数据来源 国际轨道数据
星历时间: 2026-09-12T12:06:00+0800
6小时前
查看轨道信息
半长轴: 6873.842km
偏心率: 0.0002121
轨道倾角: 97.495°
近地点辐角 279.111°
升交点赤经 325.427°
平近点角 80.988°
近地点: 494.247km
远地点: 497.163km
周期: 94.528分钟
每日圈数: 15.233633
详细信息
使用方式:
暂无
2D轨道图
3D轨道图
轨道高度分析图
轨道倾角分析图
轨道综合分析图
查看轨道综合分析图
交会数据列表
事件ID 空间交会对象 最接近时刻(TCA) 交会距离 交会风险概率(CRP) 交会风险指数(CRI) 操作
CDM_260913-143205-325606-698821
2026-09-13T
14:32:47+0000
1.619 km
极远距离
4.570451E-6 低风险 0.48
CDM_260913-192306-629606-698822
OBJECT D (66296)
2026-09-13T
19:23:04+0000
1.974 km
极远距离
1.981261E-6 低风险 0.41
与全量物体交会距离演化趋势
与全量物体交会风险概率演化趋势